Skip Page Navigation
NASA JPL Caltech
NASA Logo - Jet Propulsion Laboratory + View the NASA Portal
+ Center for Near-Earth Object Studies
JPL Home Earth Solar System Stars & Galaxies Technology
JPL Solar System Dynamics
BODIES ORBITS EPHEMERIDES TOOLS PHYSICAL DATA DISCOVERY FAQ SITE MAP
JPL Small-Body Database Browser
Search: [ help ]  
78 Diana (A863 EA)
Classification: Main-belt Asteroid          SPK-ID: 2000078
Ephemeris | Orbit Diagram | Orbital Elements | Mission Design | Physical Parameters | Discovery Circumstances | Close-Approach Data ]

[ show orbit diagram ]
Orbital Elements at Epoch 2459000.5 (2020-May-31.0) TDB
Reference: JPL 93 (heliocentric ecliptic J2000)
 Element Value Uncertainty (1-sigma)   Units 
e .2071483691921373 3.5616e-08  
a 2.618808181611513 4.6627e-09 au
q 2.076326337563662 9.3751e-08 au
i 8.701904870383448 4.7614e-06 deg
node 333.397184674582 2.6285e-05 deg
peri 152.7401011607424 2.891e-05 deg
M 51.29130031138212 1.1355e-05 deg
tp 2458779.956039699628
(2019-Oct-23.45603970)
4.8737e-05 TDB
period 1547.939421035017
4.24
4.1341e-06
1.132e-08
d
yr
n .2325672407511199 6.2112e-10 deg/d
Q 3.161290025659365 5.6286e-09 au
  Orbit Determination Parameters
   # obs. used (total)      2819  
   data-arc span      57457 days (157.31 yr)  
   first obs. used      1863-04-10  
   last obs. used      2020-08-01  
   planetary ephem.      DE431  
   SB-pert. ephem.      SB431-N16  
   condition code      0  
   norm. resid. RMS      .46156  
   source      ORB  
   producer      Otto Matic  
   solution date      2020-Aug-24 22:09:19  

Additional Information
 Earth MOID = 1.09539 au 
 Jupiter MOID = 1.90905 au 
 T_jup = 3.359 
[ show covariance matrix ]

Ephemeris | Orbit Diagram | Orbital Elements | Mission Design | Physical Parameters | Discovery Circumstances | Close-Approach Data ]

Physical Parameter Table
Parameter Symbol Value Units Sigma Reference Notes
absolute magnitude H 8.4   n/a MPO502153 IRAS observations used: 26
magnitude slope G 0.08   n/a PDS3 (MPC 17257) Fit
diameter diameter 120.60 km 2.7 IRAS-A-FPA-3-RDR-IMPS-V6.0 IRAS observations used: 26
rotation period rot_per 7.2991 h n/a LCDB (Rev. 2019-August); Warner et al., 2009 Published Reference List:
[Harris, A.W.; Young, J.W. (1989) Icarus 81, 314-364.]
[Licchelli, D. (2006) Minor Planet Bull. 33, 11-13.]
[Fleenor, M.L. (2007) Minor Planet Bull. 34, 66-67.]
[Benishek, V.; Protitch-Benishek, V. (2008) Minor Planet Bull. 35, 28-30.]
[Fauerbach, M.; Marks, S.A.; Lucas, M.P. (2008) Minor Planet Bull. 35, 44-46.]
geometric albedo albedo 0.0706   0.003 IRAS-A-FPA-3-RDR-IMPS-V6.0 IRAS observations used: 26
B-V BV 0.713   0.030 EAR-A-5-DDR-UBV-MEAN-VALUES-V1.2 #obs=5; phase (min.=1.69, mean=8.62, max.=16.99) deg.
U-B UB 0.380   0.010 EAR-A-5-DDR-UBV-MEAN-VALUES-V1.2 #obs=5; phase (min.=1.69, mean=9.58, max.=16.99) deg.
Tholen spectral type spec_T C   n/a EAR-A-5-DDR-TAXONOMY-V4.0 used 7 color indices
SMASSII spectral type spec_B Ch   n/a EAR-A-5-DDR-TAXONOMY-V4.0 based on a high-resolution spectrum by Xu et al. (1995) or Bus and Binzel (2002)

78 Diana (A863 EA)          Discovered 1863-Mar-15 by Luther, R. at Dusseldorf
Reference: DISCOVERY.DBLast Updated: 2003-08-29

[ show close-approach data ]
Ephemeris | Orbit Diagram | Orbital Elements | Mission Design | Physical Parameters | Discovery Circumstances | Close-Approach Data ]
ABOUT SSD CREDITS/AWARDS PRIVACY/COPYRIGHT GLOSSARY LINKS
FirstGov 2020-Sep-23 20:25 UT
(server date/time)  
NASA Home Page
Site Manager:   Ryan S. Park
Webmaster  Alan B. Chamberlin